EN

Hourly Weather Lahta

Today, 23 July, Friday

Time Temperature Precipitation Wind Pressure Humidity
00:00 +10°C° 0 mm 2 mps 742 mmHg 94%
01:00 +10°C° 0 mm 2 mps 742 mmHg 93%
02:00 +10°C° 0 mm 2 mps 742 mmHg 94%
03:00 +10°C° 0 mm 2 mps 742 mmHg 92%
04:00 +12°C° 0 mm 2 mps 742 mmHg 91%
05:00 +12°C° 0 mm 2 mps 743 mmHg 90%
06:00 +13°C° 0 mm 2 mps 743 mmHg 79%
07:00 +14°C° 0 mm 3 mps 743 mmHg 68%
08:00 +16°C° 0 mm 3 mps 743 mmHg 57%
09:00 +17°C° 0.1 mm 3 mps 743 mmHg 53%
10:00 +17°C° 0.1 mm 3 mps 743 mmHg 49%
11:00 +18°C° 0.1 mm 4 mps 743 mmHg 45%
12:00 +18°C° 0 mm 4 mps 744 mmHg 43%
13:00 +18°C° 0 mm 4 mps 744 mmHg 42%
14:00 +17°C° 0 mm 4 mps 744 mmHg 41%
15:00 +17°C° 0 mm 4 mps 745 mmHg 39%
16:00 +17°C° 0 mm 4 mps 745 mmHg 37%
17:00 +17°C° 0 mm 4 mps 745 mmHg 35%
18:00 +14°C° 0 mm 3 mps 746 mmHg 39%
19:00 +13°C° 0 mm 3 mps 746 mmHg 43%
20:00 +13°C° 0 mm 2 mps 747 mmHg 48%
21:00 +10°C° 0 mm 2 mps 747 mmHg 53%
22:00 +8°C° 0 mm 2 mps 747 mmHg 58%
23:00 +8°C° 0 mm 1 mps 748 mmHg 64%

Tomorrow, 24 July, Saturday

Time Temperature Precipitation Wind Pressure Humidity
00:00 +7°C° 0 mm 1 mps 748 mmHg 67%
01:00 +6°C° 0 mm 2 mps 749 mmHg 71%
02:00 +6°C° 0 mm 2 mps 749 mmHg 74%
03:00 +7°C° 0 mm 1 mps 749 mmHg 71%
04:00 +8°C° 0 mm 1 mps 749 mmHg 69%
05:00 +9°C° 0 mm 1 mps 750 mmHg 66%
06:00 +10°C° 0 mm 2 mps 750 mmHg 58%
07:00 +13°C° 0 mm 2 mps 750 mmHg 50%
08:00 +14°C° 0 mm 3 mps 750 mmHg 42%
09:00 +14°C° 0 mm 3 mps 750 mmHg 41%
10:00 +14°C° 0 mm 3 mps 750 mmHg 40%
11:00 +16°C° 0 mm 3 mps 750 mmHg 39%
12:00 +17°C° 0 mm 3 mps 750 mmHg 38%
13:00 +17°C° 0 mm 3 mps 750 mmHg 37%
14:00 +18°C° 0 mm 3 mps 750 mmHg 36%
15:00 +18°C° 0 mm 2 mps 751 mmHg 37%
16:00 +18°C° 0 mm 2 mps 751 mmHg 38%
17:00 +19°C° 0 mm 1 mps 751 mmHg 39%
18:00 +18°C° 0 mm 1 mps 751 mmHg 43%
19:00 +16°C° 0 mm 1 mps 751 mmHg 47%
20:00 +15°C° 0 mm 1 mps 751 mmHg 51%
21:00 +15°C° 0 mm 2 mps 751 mmHg 53%
22:00 +14°C° 0 mm 2 mps 751 mmHg 55%
23:00 +14°C° 0 mm 2 mps 752 mmHg 57%

Day after tomorrow, 25 July, Sunday

Time Temperature Precipitation Wind Pressure Humidity
00:00 +14°C° 0 mm 2 mps 752 mmHg 58%
01:00 +14°C° 0 mm 2 mps 752 mmHg 59%
02:00 +14°C° 0 mm 2 mps 752 mmHg 59%
03:00 +14°C° 0 mm 2 mps 752 mmHg 62%
04:00 +14°C° 0 mm 2 mps 752 mmHg 65%
05:00 +14°C° 0 mm 2 mps 752 mmHg 67%
06:00 +16°C° 0 mm 2 mps 752 mmHg 63%
07:00 +17°C° 0 mm 2 mps 752 mmHg 59%
08:00 +19°C° 0 mm 3 mps 752 mmHg 54%
09:00 +20°C° 0 mm 2 mps 752 mmHg 48%
10:00 +23°C° 0 mm 2 mps 752 mmHg 41%
11:00 +25°C° 0 mm 2 mps 752 mmHg 34%
12:00 +25°C° 0 mm 3 mps 752 mmHg 36%
13:00 +25°C° 0 mm 3 mps 752 mmHg 37%
14:00 +25°C° 0 mm 3 mps 752 mmHg 38%
15:00 +25°C° 0 mm 3 mps 752 mmHg 38%
16:00 +25°C° 0 mm 3 mps 752 mmHg 38%
17:00 +25°C° 0 mm 3 mps 752 mmHg 38%
18:00 +22°C° 0 mm 3 mps 753 mmHg 42%
19:00 +21°C° 0 mm 3 mps 753 mmHg 46%
20:00 +20°C° 0 mm 2 mps 753 mmHg 49%
21:00 +19°C° 0 mm 2 mps 753 mmHg 54%
22:00 +17°C° 0 mm 2 mps 753 mmHg 58%
23:00 +16°C° 0 mm 2 mps 753 mmHg 62%

26 July, Monday

Time Temperature Precipitation Wind Pressure Humidity
00:00 +16°C° 0 mm 2 mps 753 mmHg 65%
01:00 +15°C° 0 mm 2 mps 753 mmHg 68%
02:00 +15°C° 0 mm 2 mps 754 mmHg 70%
03:00 +16°C° 0 mm 2 mps 754 mmHg 71%
04:00 +16°C° 0 mm 1 mps 754 mmHg 72%
05:00 +16°C° 0 mm 1 mps 754 mmHg 73%
06:00 +20°C° 0 mm 1 mps 754 mmHg 64%
07:00 +21°C° 0 mm 2 mps 754 mmHg 56%
08:00 +24°C° 0 mm 2 mps 754 mmHg 47%
09:00 +26°C° 0 mm 2 mps 754 mmHg 43%
10:00 +27°C° 0 mm 2 mps 754 mmHg 39%
11:00 +28°C° 0 mm 2 mps 754 mmHg 34%
12:00 +29°C° 0 mm 2 mps 754 mmHg 33%
13:00 +29°C° 0 mm 2 mps 754 mmHg 32%
14:00 +29°C° 0 mm 2 mps 754 mmHg 31%
15:00 +29°C° 0 mm 2 mps 754 mmHg 33%
16:00 +28°C° 0 mm 2 mps 754 mmHg 35%
17:00 +28°C° 0 mm 1 mps 754 mmHg 37%
18:00 +26°C° 0 mm 1 mps 754 mmHg 44%
19:00 +24°C° 0 mm 1 mps 755 mmHg 52%
20:00 +22°C° 0 mm 1 mps 755 mmHg 59%
21:00 +21°C° 0.1 mm 1 mps 755 mmHg 65%
22:00 +19°C° 0.1 mm 1 mps 755 mmHg 72%
23:00 +18°C° 0.1 mm 1 mps 755 mmHg 78%

27 July, Tuesday

Time Temperature Precipitation Wind Pressure Humidity
00:00 +16°C° 0.1 mm 1 mps 755 mmHg 81%
01:00 +16°C° 0.1 mm 1 mps 755 mmHg 83%
02:00 +15°C° 0.1 mm 1 mps 755 mmHg 85%
03:00 +16°C° 0.1 mm 1 mps 755 mmHg 84%
04:00 +16°C° 0.1 mm 1 mps 756 mmHg 83%
05:00 +16°C° 0.1 mm 0 mps 756 mmHg 82%
06:00 +20°C° 0 mm 1 mps 755 mmHg 71%
07:00 +23°C° 0 mm 1 mps 755 mmHg 59%
08:00 +25°C° 0 mm 1 mps 755 mmHg 48%
09:00 +27°C° 0 mm 2 mps 755 mmHg 42%
10:00 +29°C° 0 mm 2 mps 755 mmHg 36%
11:00 +30°C° 0 mm 2 mps 754 mmHg 30%
12:00 +31°C° 0 mm 2 mps 754 mmHg 28%
13:00 +31°C° 0 mm 3 mps 754 mmHg 27%
14:00 +31°C° 0 mm 3 mps 753 mmHg 25%
15:00 +31°C° 0 mm 3 mps 753 mmHg 27%
16:00 +30°C° 0 mm 3 mps 753 mmHg 28%
17:00 +30°C° 0 mm 3 mps 753 mmHg 29%
18:00 +28°C° 0 mm 3 mps 753 mmHg 38%
19:00 +26°C° 0 mm 2 mps 752 mmHg 46%
20:00 +23°C° 0 mm 2 mps 752 mmHg 54%
21:00 +21°C° 0 mm 2 mps 752 mmHg 58%
22:00 +21°C° 0 mm 1 mps 752 mmHg 62%
23:00 +20°C° 0 mm 1 mps 752 mmHg 67%

28 July, Wednesday

Time Temperature Precipitation Wind Pressure Humidity
00:00 +20°C° 0 mm 1 mps 752 mmHg 66%
01:00 +20°C° 0 mm 1 mps 752 mmHg 66%
02:00 +20°C° 0 mm 1 mps 752 mmHg 66%
03:00 +20°C° 0 mm 1 mps 751 mmHg 66%
04:00 +20°C° 0 mm 1 mps 751 mmHg 67%
05:00 +20°C° 0 mm 1 mps 751 mmHg 68%
06:00 +23°C° 0 mm 2 mps 751 mmHg 60%
07:00 +25°C° 0 mm 2 mps 750 mmHg 52%
08:00 +27°C° 0 mm 2 mps 750 mmHg 45%
09:00 +28°C° 0 mm 3 mps 750 mmHg 41%
10:00 +30°C° 0 mm 3 mps 749 mmHg 38%
11:00 +32°C° 0 mm 4 mps 749 mmHg 34%
12:00 +30°C° 0 mm 3 mps 749 mmHg 34%
13:00 +30°C° 0 mm 3 mps 748 mmHg 34%
14:00 +30°C° 0 mm 3 mps 748 mmHg 33%
15:00 +30°C° 0 mm 3 mps 748 mmHg 33%
16:00 +30°C° 0 mm 3 mps 747 mmHg 32%
17:00 +30°C° 0 mm 4 mps 747 mmHg 32%
18:00 +28°C° 0 mm 3 mps 747 mmHg 40%
19:00 +26°C° 0 mm 2 mps 746 mmHg 47%
20:00 +24°C° 0 mm 2 mps 746 mmHg 55%
21:00 +23°C° 0 mm 2 mps 746 mmHg 60%
22:00 +21°C° 0 mm 2 mps 746 mmHg 65%
23:00 +20°C° 0 mm 2 mps 745 mmHg 70%
Show more